This is the latest recevied weather packets stored in our database for station/object WD7OO. If no packets are shown the sender has not sent any weather packets the latest 10 day(s).
| Time | Temp. | Humidity | Pressure | Rain* | Wind** | Luminosity | Snow |
|---|---|---|---|---|---|---|---|
| 1777588286 | 12.22° C | 54% | 1014.6 hPa | 0 mm | - | 60 W/m² | - |
| 1777587982 | 12.22° C | 50% | 1014.6 hPa | 0 mm | - | 72 W/m² | - |
| 1777587678 | 12.22° C | 50% | 1014.7 hPa | 0 mm | - | 103 W/m² | - |
| 1777587378 | 12.22° C | 53% | 1014.5 hPa | 0 mm | - | 147 W/m² | - |
| 1777587074 | 12.22° C | 51% | 1014.6 hPa | 0 mm | - | 136 W/m² | - |
| 1777586770 | 12.78° C | 49% | 1014.7 hPa | 0 mm | - | 130 W/m² | - |
| 1777586466 | 12.78° C | 51% | 1014.7 hPa | 0 mm | - | 143 W/m² | - |
| 1777586161 | 13.33° C | 48% | 1014.5 hPa | 0 mm | - | 186 W/m² | - |
| 1777585859 | 13.33° C | 47% | 1014.7 hPa | 0 mm | - | 212 W/m² | - |
| 1777585559 | 13.89° C | 50% | 1014.8 hPa | 0 mm | - | 195 W/m² | - |
| 1777585255 | 13.89° C | 47% | 1014.8 hPa | 0 mm | - | 215 W/m² | - |
| 1777584950 | 13.33° C | 44% | 1014.7 hPa | 0 mm | - | 363 W/m² | - |
| 1777584647 | 13.33° C | 46% | 1014.8 hPa | 0 mm | - | 482 W/m² | - |
| 1777584344 | 13.89° C | 47% | 1014.8 hPa | 0 mm | - | 333 W/m² | - |
| 1777584040 | 13.33° C | 48% | 1014.9 hPa | 0 mm | - | 319 W/m² | - |
| 1777583735 | 12.78° C | 48% | 1015.1 hPa | 0 mm | - | 517 W/m² | - |
| 1777583434 | 12.78° C | 49% | 1015.2 hPa | 0 mm | - | 268 W/m² | - |
| 1777583133 | 12.78° C | 50% | 1015.3 hPa | 0 mm | - | 232 W/m² | - |
| 1777582829 | 13.33° C | 49% | 1015.2 hPa | 0 mm | - | 277 W/m² | - |
| 1777582526 | 13.89° C | 48% | 1015.4 hPa | 0 mm | - | 285 W/m² | - |
| 1777582221 | 13.33° C | 46% | 1015.3 hPa | 0 mm | - | 296 W/m² | - |
| 1777581919 | 13.33° C | 51% | 1015.3 hPa | 0 mm | - | 546 W/m² | - |
| 1777581615 | 12.78° C | 48% | 1015.5 hPa | 0 mm | - | 389 W/m² | - |
| 1777581309 | 13.33° C | 48% | 1015.5 hPa | 0 mm | - | 371 W/m² | - |
| 1777581004 | 12.78° C | 50% | 1015.5 hPa | 0 mm | - | 437 W/m² | - |
* Rain latest hour (hover to see other rain measurements)
** Current wind speed in m/s (hover to see current wind gust speed)